| time (UTC) | temp F | wind direction | speed knots | gust knots | rain 1hr in | rain 24hr in | rain mn in | humidity % | barometer mb |
| 20260504012003 | 56 | 270 | 0.0 | 1.7 | 0.00 | 0.07 | 0.00 | 89 | 1013.0 |
| 20260504011503 | 56 | 258 | 0.0 | 2.6 | 0.00 | 0.07 | 0.00 | 89 | 1013.3 |
| 20260504011003 | 56 | 245 | 0.9 | 2.6 | 0.00 | 0.07 | 0.00 | 89 | 1013.2 |
| 20260504010517 | 56 | 231 | 0.9 | 2.6 | 0.00 | 0.07 | 0.00 | 89 | 1013.2 |
| 20260504010017 | 56 | 231 | 0.9 | 2.6 | 0.00 | 0.07 | 0.00 | 89 | 1013.1 |
| 20260504005517 | 57 | 231 | 0.0 | 1.7 | 0.00 | 0.07 | 0.00 | 89 | 1013.0 |
| 20260504005004 | 57 | 0 | 0.0 | 0.0 | 0.00 | 0.07 | 0.00 | 89 | 1013.1 |
| 20260504004503 | 57 | 107 | 0.0 | 0.9 | 0.00 | 0.07 | 0.00 | 88 | 1013.0 |
| 20260504004003 | 57 | 107 | 0.0 | 2.6 | 0.00 | 0.07 | 0.00 | 89 | 1012.9 |
| 20260504003503 | 57 | 100 | 0.9 | 3.5 | 0.00 | 0.07 | 0.00 | 89 | 1012.8 |
| 20260504003003 | 57 | 92 | 0.9 | 3.5 | 0.00 | 0.07 | 0.00 | 88 | 1012.8 |
| 20260504002503 | 57 | 88 | 0.9 | 1.7 | 0.00 | 0.07 | 0.00 | 88 | 1012.8 |
| 20260504002003 | 58 | 73 | 0.9 | 2.6 | 0.00 | 0.07 | 0.00 | 88 | 1012.6 |
| 20260504001503 | 58 | 47 | 0.9 | 2.6 | 0.00 | 0.07 | 0.00 | 88 | 1012.6 |
| 20260504001003 | 58 | 16 | 0.9 | 2.6 | 0.00 | 0.07 | 0.00 | 88 | 1012.5 |
| 20260504000503 | 57 | 326 | 0.0 | 2.6 | 0.00 | 0.07 | 0.00 | 88 | 1012.5 |
| 20260504000003 | 57 | 313 | 0.9 | 2.6 | 0.00 | 0.07 | 0.00 | 88 | 1012.5 |
| 20260503235503 | 57 | 304 | 0.9 | 4.3 | 0.00 | 0.07 | 0.00 | 88 | 1012.7 |
| 20260503235003 | 57 | 215 | 2.6 | 8.7 | 0.00 | 0.07 | 0.00 | 88 | 1012.7 |
| 20260503234517 | 57 | 186 | 2.6 | 8.7 | 0.00 | 0.07 | 0.00 | 88 | 1012.8 |
| 20260503234003 | 58 | 158 | 2.6 | 6.1 | 0.00 | 0.07 | 0.00 | 88 | 1012.8 |
| 20260503233503 | 58 | 173 | 2.6 | 8.7 | 0.00 | 0.07 | 0.00 | 87 | 1012.7 |
| 20260503233017 | 58 | 204 | 2.6 | 8.7 | 0.00 | 0.07 | 0.00 | 88 | 1012.5 |
| 20260503232503 | 58 | 245 | 3.5 | 7.8 | 0.00 | 0.07 | 0.00 | 88 | 1012.9 |
| 20260503232003 | 58 | 269 | 2.6 | 7.8 | 0.00 | 0.07 | 0.00 | 89 | 1012.9 |
| 20260503231503 | 58 | 313 | 3.5 | 12.2 | 0.00 | 0.07 | 0.00 | 90 | 1012.9 |
| 20260503231003 | 58 | 299 | 4.3 | 12.2 | 0.00 | 0.07 | 0.00 | 91 | 1013.0 |
| 20260503230503 | 58 | 267 | 4.3 | 12.2 | 0.00 | 0.07 | 0.00 | 91 | 1013.1 |
| 20260503230003 | 58 | 250 | 3.5 | 8.7 | 0.00 | 0.07 | 0.00 | 91 | 1012.8 |
| 20260503225503 | 59 | 283 | 3.5 | 8.7 | 0.00 | 0.07 | 0.00 | 91 | 1012.8 |
| 20260503225003 | 59 | 309 | 3.5 | 8.7 | 0.00 | 0.07 | 0.00 | 91 | 1012.7 |
| 20260503224517 | 59 | 316 | 1.7 | 7.8 | 0.00 | 0.07 | 0.00 | 91 | 1012.6 |
| 20260503224003 | 59 | 328 | 0.0 | 5.2 | 0.00 | 0.07 | 0.00 | 92 | 1012.4 |
| 20260503223503 | 59 | 0 | 0.0 | 0.0 | 0.00 | 0.07 | 0.00 | 92 | 1012.3 |
| 20260503223003 | 59 | 0 | 0.0 | 0.0 | 0.00 | 0.07 | 0.00 | 91 | 1012.3 |
| 20260503222503 | 59 | 0 | 0.0 | 0.0 | 0.00 | 0.07 | 0.00 | 91 | 1012.1 |
| 20260503222003 | 59 | 314 | 0.0 | 0.9 | 0.00 | 0.07 | 0.00 | 91 | 1012.3 |
| 20260503221504 | 59 | 314 | 0.0 | 0.9 | 0.00 | 0.07 | 0.00 | 91 | 1012.2 |
| 20260503221003 | 59 | 314 | 0.0 | 0.9 | 0.00 | 0.07 | 0.00 | 91 | 1012.4 |
| 20260503220503 | 59 | 314 | 0.0 | 0.9 | 0.00 | 0.07 | 0.00 | 91 | 1012.4 |
| 20260503220003 | 59 | 314 | 0.0 | 0.9 | 0.00 | 0.07 | 0.00 | 91 | 1012.4 |
| 20260503215503 | 59 | 314 | 0.0 | 0.9 | 0.00 | 0.07 | 0.07 | 91 | 1012.4 |
| 20260503215003 | 59 | 314 | 0.0 | 2.6 | 0.00 | 0.07 | 0.07 | 91 | 1012.3 |
| 20260503214503 | 59 | 315 | 0.9 | 2.6 | 0.00 | 0.07 | 0.07 | 91 | 1012.3 |
| 20260503214003 | 59 | 316 | 1.7 | 3.5 | 0.00 | 0.07 | 0.07 | 90 | 1012.2 |
| 20260503213503 | 59 | 317 | 1.7 | 3.5 | 0.00 | 0.07 | 0.07 | 90 | 1012.4 |
| 20260503213003 | 59 | 318 | 0.9 | 2.6 | 0.00 | 0.07 | 0.07 | 91 | 1012.3 |
| 20260503212517 | 60 | 319 | 0.0 | 1.7 | 0.00 | 0.07 | 0.07 | 91 | 1012.3 |
| 20260503212003 | 60 | 319 | 0.0 | 1.7 | 0.00 | 0.07 | 0.07 | 91 | 1012.3 |
| 20260503211503 | 60 | 319 | 0.0 | 1.7 | 0.00 | 0.07 | 0.07 | 90 | 1012.4 |
| 20260503211003 | 60 | 0 | 0.0 | 0.0 | 0.00 | 0.07 | 0.07 | 90 | 1012.3 |
| 20260503210503 | 60 | 0 | 0.0 | 0.0 | 0.00 | 0.07 | 0.07 | 90 | 1012.3 |
| 20260503210003 | 60 | 319 | 0.0 | 0.9 | 0.00 | 0.07 | 0.07 | 90 | 1012.3 |
| 20260503205517 | 60 | 319 | 0.0 | 0.9 | 0.01 | 0.07 | 0.07 | 90 | 1012.4 |
| 20260503205003 | 60 | 319 | 0.0 | 1.7 | 0.01 | 0.07 | 0.07 | 90 | 1012.4 |
| 20260503204503 | 60 | 319 | 0.9 | 1.7 | 0.01 | 0.07 | 0.07 | 90 | 1012.4 |
| 20260503204003 | 60 | 319 | 0.0 | 0.9 | 0.01 | 0.07 | 0.07 | 90 | 1012.4 |
| 20260503203503 | 60 | 319 | 0.0 | 0.9 | 0.01 | 0.07 | 0.07 | 90 | 1012.5 |
| 20260503203003 | 60 | 319 | 0.0 | 0.9 | 0.01 | 0.07 | 0.07 | 90 | 1012.5 |
| 20260503202517 | 60 | 319 | 0.0 | 0.9 | 0.01 | 0.07 | 0.07 | 90 | 1012.4 |
| 20260503202003 | 60 | 319 | 0.9 | 1.7 | 0.01 | 0.07 | 0.07 | 89 | 1012.3 |
| 20260503201503 | 60 | 319 | 0.9 | 1.7 | 0.01 | 0.07 | 0.07 | 89 | 1012.4 |
| 20260503201003 | 60 | 319 | 0.0 | 1.7 | 0.01 | 0.08 | 0.07 | 90 | 1012.3 |
| 20260503200503 | 60 | 319 | 0.9 | 1.7 | 0.02 | 0.08 | 0.07 | 89 | 1012.3 |
| 20260503200003 | 60 | 319 | 0.9 | 1.7 | 0.02 | 0.08 | 0.07 | 90 | 1012.3 |
| 20260503195503 | 60 | 319 | 0.9 | 2.6 | 0.02 | 0.07 | 0.06 | 89 | 1012.1 |
| 20260503195003 | 60 | 319 | 0.9 | 2.6 | 0.03 | 0.07 | 0.06 | 89 | 1012.1 |
| 20260503194503 | 61 | 321 | 0.9 | 4.3 | 0.03 | 0.07 | 0.06 | 89 | 1012.1 |
| 20260503194017 | 61 | 322 | 1.7 | 7.0 | 0.03 | 0.07 | 0.06 | 89 | 1012.2 |
| 20260503193503 | 60 | 321 | 2.6 | 7.8 | 0.03 | 0.07 | 0.06 | 89 | 1012.0 |
| 20260503193003 | 61 | 327 | 1.7 | 7.8 | 0.03 | 0.07 | 0.06 | 89 | 1012.0 |
| 20260503192503 | 61 | 332 | 3.5 | 9.6 | 0.04 | 0.07 | 0.06 | 89 | 1011.9 |
| 20260503192003 | 61 | 327 | 4.3 | 9.6 | 0.04 | 0.07 | 0.06 | 88 | 1011.9 |
| 20260503191503 | 61 | 325 | 4.3 | 9.6 | 0.04 | 0.07 | 0.06 | 88 | 1011.8 |
| 20260503191017 | 61 | 325 | 4.3 | 9.6 | 0.04 | 0.07 | 0.06 | 87 | 1011.8 |
| 20260503190503 | 61 | 324 | 4.3 | 9.6 | 0.03 | 0.06 | 0.06 | 86 | 1011.8 |
| 20260503190017 | 61 | 323 | 3.5 | 7.8 | 0.02 | 0.06 | 0.05 | 86 | 1011.6 |
| 20260503185503 | 62 | 322 | 4.3 | 7.8 | 0.02 | 0.05 | 0.04 | 85 | 1011.7 |
| 20260503185003 | 62 | 321 | 3.5 | 9.6 | 0.02 | 0.04 | 0.03 | 85 | 1011.6 |
| 20260503184517 | 62 | 322 | 0.9 | 9.6 | 0.02 | 0.04 | 0.03 | 86 | 1011.5 |
| 20260503184003 | 63 | 333 | 0.0 | 1.7 | 0.02 | 0.04 | 0.03 | 86 | 1011.3 |
| 20260503183503 | 63 | 333 | 0.0 | 1.7 | 0.02 | 0.04 | 0.03 | 86 | 1011.3 |
| 20260503183003 | 63 | 333 | 0.9 | 1.7 | 0.02 | 0.04 | 0.03 | 86 | 1011.2 |
| 20260503182503 | 63 | 333 | 0.9 | 2.6 | 0.01 | 0.03 | 0.02 | 85 | 1011.2 |
| 20260503182003 | 63 | 333 | 0.9 | 2.6 | 0.01 | 0.03 | 0.02 | 84 | 1011.1 |
| 20260503181504 | 63 | 333 | 0.0 | 0.9 | 0.01 | 0.03 | 0.02 | 84 | 1011.1 |
| 20260503181003 | 63 | 332 | 0.9 | 2.6 | 0.01 | 0.03 | 0.02 | 83 | 1011.0 |
| 20260503180503 | 63 | 332 | 0.9 | 2.6 | 0.01 | 0.03 | 0.02 | 82 | 1010.9 |
| 20260503180004 | 64 | 331 | 0.9 | 1.7 | 0.01 | 0.03 | 0.02 | 83 | 1010.9 |
| 20260503175517 | 64 | 331 | 0.9 | 1.7 | 0.01 | 0.03 | 0.02 | 82 | 1010.8 |
| 20260503175003 | 64 | 331 | 0.9 | 3.5 | 0.00 | 0.02 | 0.02 | 82 | 1010.8 |
| 20260503174503 | 64 | 331 | 1.7 | 3.5 | 0.00 | 0.02 | 0.02 | 80 | 1010.7 |
| 20260503174003 | 64 | 331 | 0.9 | 2.6 | 0.00 | 0.02 | 0.02 | 80 | 1010.5 |
| 20260503173503 | 64 | 331 | 0.0 | 0.9 | 0.00 | 0.02 | 0.02 | 79 | 1010.5 |
| 20260503173003 | 64 | 331 | 0.0 | 1.7 | 0.00 | 0.02 | 0.02 | 78 | 1010.5 |
| 20260503172503 | 65 | 331 | 0.9 | 1.7 | 0.00 | 0.02 | 0.02 | 78 | 1010.6 |
| 20260503172017 | 65 | 331 | 0.9 | 2.6 | 0.00 | 0.02 | 0.02 | 77 | 1010.6 |
| 20260503171503 | 65 | 331 | 0.9 | 2.6 | 0.00 | 0.02 | 0.02 | 76 | 1010.7 |
| 20260503171003 | 65 | 331 | 0.9 | 1.7 | 0.00 | 0.02 | 0.02 | 76 | 1010.7 |
| 20260503170503 | 66 | 331 | 0.9 | 1.7 | 0.00 | 0.02 | 0.02 | 74 | 1010.6 |
| 20260503151003 | 64 | 100 | 0.9 | 2.6 | 0.00 | 0.05 | 0.02 | 77 | 1011.6 |
| 20260503150503 | 63 | 97 | 0.9 | 2.6 | 0.00 | 0.05 | 0.02 | 77 | 1011.9 |
| 20260503131003 | 62 | 305 | 5.2 | 15.6 | 0.00 | 0.03 | 0.00 | 77 | 1013.3 |
| 20260503130503 | 64 | 302 | 6.1 | 14.8 | 0.00 | 0.03 | 0.00 | 74 | 1013.2 |
| 20260503110503 | 69 | 170 | 4.3 | 10.4 | 0.00 | 0.03 | 0.00 | 64 | 1013.0 |
| 20260503090503 | 66 | 102 | 1.7 | 3.5 | 0.00 | 0.03 | 0.00 | 79 | 1013.6 |
| 20260503081517 | 62 | 314 | 0.0 | 1.7 | 0.00 | 0.03 | 0.00 | 87 | 1013.7 |
| 20260503081003 | 62 | 314 | 0.9 | 1.7 | 0.00 | 0.03 | 0.00 | 88 | 1013.8 |
| 20260503080517 | 61 | 315 | 0.0 | 1.7 | 0.00 | 0.03 | 0.00 | 89 | 1013.8 |
| 20260503072517 | 58 | 0 | 0.0 | 0.0 | 0.00 | 0.03 | 0.00 | 93 | 1013.8 |
| 20260503072003 | 58 | 0 | 0.0 | 0.0 | 0.00 | 0.03 | 0.00 | 93 | 1013.8 |
| 20260503071517 | 58 | 0 | 0.0 | 0.0 | 0.00 | 0.03 | 0.00 | 93 | 1013.8 |
| 20260503071003 | 57 | 0 | 0.0 | 0.0 | 0.00 | 0.03 | 0.00 | 93 | 1013.9 |
| 20260503070503 | 57 | 0 | 0.0 | 0.0 | 0.00 | 0.03 | 0.00 | 93 | 1013.9 |
| 20260503055003 | 56 | 0 | 0.0 | 0.0 | 0.00 | 0.03 | 0.00 | 92 | 1013.5 |
| 20260503054503 | 56 | 317 | 0.0 | 1.7 | 0.00 | 0.03 | 0.00 | 91 | 1013.4 |
| 20260503054017 | 56 | 317 | 0.0 | 1.7 | 0.00 | 0.03 | 0.00 | 91 | 1013.4 |
| 20260503053503 | 56 | 317 | 0.9 | 2.6 | 0.00 | 0.03 | 0.00 | 91 | 1013.5 |
| 20260503053003 | 56 | 317 | 0.9 | 2.6 | 0.00 | 0.03 | 0.00 | 91 | 1013.3 |
| 20260503052503 | 56 | 317 | 0.0 | 1.7 | 0.00 | 0.03 | 0.00 | 91 | 1013.4 |
| 20260503052003 | 56 | 317 | 0.9 | 3.5 | 0.00 | 0.03 | 0.00 | 91 | 1013.4 |
| 20260503051503 | 56 | 317 | 0.9 | 3.5 | 0.00 | 0.03 | 0.00 | 91 | 1013.4 |
| 20260503051003 | 56 | 317 | 0.9 | 1.7 | 0.00 | 0.03 | 0.00 | 90 | 1013.4 |
| 20260503050503 | 56 | 317 | 0.9 | 1.7 | 0.00 | 0.03 | 0.00 | 91 | 1013.2 |
| 20260503050003 | 56 | 317 | 0.0 | 0.9 | 0.00 | 0.03 | 0.00 | 91 | 1013.2 |
| 20260503045503 | 56 | 317 | 0.0 | 0.9 | 0.00 | 0.03 | 0.00 | 91 | 1013.2 |
| 20260503045003 | 56 | 0 | 0.0 | 0.0 | 0.00 | 0.03 | 0.00 | 90 | 1013.3 |
| 20260503044503 | 56 | 0 | 0.0 | 0.0 | 0.00 | 0.03 | 0.00 | 90 | 1013.3 |
| 20260503044003 | 56 | 317 | 0.0 | 0.9 | 0.00 | 0.03 | 0.00 | 90 | 1013.2 |
| 20260503043503 | 57 | 317 | 0.0 | 0.9 | 0.00 | 0.03 | 0.00 | 90 | 1013.2 |
| 20260503043003 | 57 | 317 | 0.0 | 0.9 | 0.00 | 0.03 | 0.00 | 90 | 1013.3 |
| 20260503042503 | 57 | 317 | 0.0 | 1.7 | 0.00 | 0.03 | 0.00 | 90 | 1013.3 |
| 20260503042003 | 57 | 317 | 0.9 | 1.7 | 0.00 | 0.03 | 0.00 | 90 | 1013.4 |
| 20260503041503 | 57 | 317 | 0.0 | 1.7 | 0.00 | 0.03 | 0.00 | 90 | 1013.5 |
| 20260503041003 | 57 | 317 | 0.0 | 0.9 | 0.00 | 0.03 | 0.00 | 90 | 1013.4 |
| 20260503040503 | 57 | 0 | 0.0 | 0.0 | 0.00 | 0.03 | 0.00 | 90 | 1013.5 |
| 20260503040017 | 57 | 317 | 0.0 | 0.9 | 0.00 | 0.03 | 0.00 | 90 | 1013.4 |
| 20260503035503 | 57 | 317 | 0.0 | 0.9 | 0.00 | 0.03 | 0.00 | 90 | 1013.4 |
| 20260503035003 | 57 | 317 | 0.0 | 0.9 | 0.00 | 0.03 | 0.00 | 90 | 1013.5 |
| 20260503034517 | 58 | 317 | 0.0 | 1.7 | 0.00 | 0.03 | 0.00 | 90 | 1013.4 |
| 20260503034003 | 58 | 317 | 0.9 | 1.7 | 0.00 | 0.03 | 0.00 | 90 | 1013.4 |
| 20260503033503 | 57 | 317 | 0.9 | 1.7 | 0.00 | 0.03 | 0.00 | 89 | 1013.4 |
| 20260503033003 | 58 | 317 | 0.0 | 1.7 | 0.00 | 0.03 | 0.00 | 89 | 1013.3 |
| 20260503032503 | 58 | 317 | 0.0 | 1.7 | 0.00 | 0.03 | 0.00 | 89 | 1013.2 |
| 20260503032003 | 58 | 317 | 0.0 | 1.7 | 0.00 | 0.03 | 0.00 | 89 | 1013.3 |
| 20260503031503 | 58 | 317 | 0.0 | 1.7 | 0.00 | 0.03 | 0.00 | 89 | 1013.4 |
| 20260503031017 | 58 | 317 | 0.9 | 1.7 | 0.00 | 0.03 | 0.00 | 89 | 1013.3 |
| 20260503030503 | 58 | 317 | 0.9 | 3.5 | 0.00 | 0.03 | 0.00 | 88 | 1013.4 |
| 20260503030017 | 58 | 329 | 1.7 | 5.2 | 0.00 | 0.03 | 0.00 | 88 | 1013.4 |
| 20260503025503 | 59 | 331 | 2.6 | 5.2 | 0.00 | 0.03 | 0.00 | 89 | 1013.5 |
| 20260503025003 | 59 | 328 | 3.5 | 7.0 | 0.00 | 0.03 | 0.00 | 89 | 1013.5 |
| 20260503024503 | 59 | 326 | 3.5 | 7.0 | 0.00 | 0.03 | 0.00 | 89 | 1013.5 |
| 20260503024003 | 59 | 321 | 2.6 | 6.1 | 0.00 | 0.03 | 0.00 | 88 | 1013.5 |
| 20260503023503 | 59 | 321 | 0.9 | 4.3 | 0.00 | 0.03 | 0.00 | 87 | 1013.6 |
| 20260503023003 | 58 | 50 | 0.0 | 1.7 | 0.00 | 0.03 | 0.00 | 86 | 1013.6 |
| 20260503022503 | 58 | 50 | 0.0 | 0.9 | 0.00 | 0.03 | 0.00 | 86 | 1013.6 |
| 20260503022003 | 58 | 52 | 0.0 | 0.9 | 0.00 | 0.03 | 0.00 | 85 | 1013.6 |
| 20260503021503 | 58 | 57 | 0.0 | 1.7 | 0.00 | 0.03 | 0.00 | 85 | 1013.8 |
| 20260503021003 | 58 | 58 | 0.9 | 1.7 | 0.00 | 0.03 | 0.00 | 84 | 1013.8 |
| 20260503020503 | 59 | 58 | 0.9 | 1.7 | 0.00 | 0.03 | 0.00 | 84 | 1013.8 |
| 20260503020003 | 59 | 58 | 0.0 | 1.7 | 0.00 | 0.03 | 0.00 | 84 | 1013.8 |
| 20260503015503 | 59 | 58 | 0.0 | 1.7 | 0.00 | 0.03 | 0.00 | 84 | 1013.7 |
| 20260503015003 | 59 | 58 | 0.9 | 1.7 | 0.00 | 0.03 | 0.00 | 84 | 1013.8 |
| 20260503014503 | 59 | 58 | 0.0 | 1.7 | 0.00 | 0.03 | 0.00 | 84 | 1013.8 |
| 20260503014003 | 59 | 58 | 0.0 | 1.7 | 0.00 | 0.03 | 0.00 | 84 | 1013.8 |
| 20260503013503 | 60 | 58 | 0.0 | 0.9 | 0.00 | 0.03 | 0.00 | 84 | 1013.8 |
| 20260503013017 | 60 | 44 | 0.0 | 2.6 | 0.00 | 0.03 | 0.00 | 84 | 1013.8 |
| 20260503012503 | 60 | 338 | 0.9 | 3.5 | 0.00 | 0.03 | 0.00 | 83 | 1013.9 |